DW4236 Weather Reports


time (UTC)temp
F
wind
direction
speed
knots
gust
knots
rain 1hr
in
rain 24hr
in
rain mn
in
humidity
%
barometer
mb
20260905182604 79 353 2.6 7.0 0.00 0.00 0.00 61 1011.5
20260905182103 78 350 0.9 7.8 0.00 0.00 0.00 64 1011.5
20260905181104 78 27 1.7 8.7 0.00 0.00 0.00 62 1011.7
20260905180604 78 19 5.2 10.4 0.00 0.00 0.00 61 1011.7
20260905175104 77 50 3.5 7.8 0.00 0.00 0.00 63 1011.9
20260905174604 77 65 4.3 10.4 0.00 0.00 0.00 66 1011.9
20260905173603 77 95 5.2 8.7 0.00 0.00 0.00 66 1012.0
20260905173103 76 86 0.9 10.4 0.00 0.00 0.00 67 1012.0
20260905172603 76 84 3.5 10.4 0.00 0.00 0.00 66 1012.0
20260905172104 76 63 1.7 7.8 0.00 0.00 0.00 68 1012.1
20260905171604 75 0 1.7 6.1 0.00 0.00 0.00 69 1012.1
20260905171103 75 57 1.7 7.8 0.00 0.00 0.00 68 1012.1
20260905170603 75 89 2.6 8.7 0.00 0.00 0.00 67 1012.2
20260905170104 76 58 4.3 11.3 0.00 0.00 0.00 66 1012.2
20260905165603 76 97 4.3 7.8 0.00 0.00 0.00 67 1012.1
20260905165104 76 18 3.5 7.0 0.00 0.00 0.00 67 1012.2
20260905164604 75 44 2.6 7.0 0.00 0.00 0.00 69 1012.2
20260905164105 75 84 1.7 4.3 0.00 0.00 0.00 70 1012.2
20260905163606 75 103 0.9 4.3 0.00 0.00 0.00 70 1012.2
20260905163105 75 20 4.3 7.8 0.00 0.00 0.00 69 1012.2
20260905162605 75 4 0.0 1.7 0.00 0.00 0.00 69 1012.1
20260905162106 76 358 1.7 7.0 0.00 0.00 0.00 68 1012.1
20260905161605 76 109 0.0 2.6 0.00 0.00 0.00 70 1012.1
20260905161105 75 118 1.7 4.3 0.00 0.00 0.00 71 1012.2
20260905160605 74 27 2.6 4.3 0.00 0.00 0.00 70 1012.2
20260905160105 74 122 2.6 6.1 0.00 0.00 0.00 72 1012.1
20260905155605 75 9 1.7 4.3 0.00 0.00 0.00 71 1012.2
20260905155104 75 55 1.7 5.2 0.00 0.00 0.00 70 1012.2
20260905154605 75 97 1.7 4.3 0.00 0.00 0.00 72 1012.2
20260905154105 75 107 1.7 6.1 0.00 0.00 0.00 72 1012.2
20260905153605 75 99 1.7 10.4 0.00 0.00 0.00 72 1012.2
20260905153105 76 2 2.6 7.0 0.00 0.00 0.00 71 1012.2
20260905152606 75 77 2.6 10.4 0.00 0.00 0.00 73 1012.2
20260905151605 74 124 3.5 7.8 0.00 0.00 0.00 75 1012.3
20260905150606 74 83 2.6 5.2 0.00 0.00 0.00 75 1012.4
20260905150105 74 139 1.7 5.2 0.00 0.00 0.00 75 1012.4
20260905145106 74 112 2.6 2.6 0.00 0.00 0.00 73 1012.5
20260905144605 74 112 0.9 2.6 0.00 0.00 0.00 73 1012.3
20260905144105 74 112 2.6 6.1 0.00 0.00 0.00 75 1012.2
20260905143606 74 126 1.7 2.6 0.00 0.00 0.00 74 1012.3
20260905143104 74 125 0.9 2.6 0.00 0.00 0.00 76 1012.4
20260905142605 74 126 1.7 2.6 0.00 0.00 0.00 76 1012.4
20260905142105 73 125 0.9 2.6 0.00 0.00 0.00 76 1012.4
20260905141605 73 125 0.9 2.6 0.00 0.00 0.00 77 1012.3
20260905141105 73 125 1.7 4.3 0.00 0.00 0.00 76 1012.4
20260905140606 73 125 0.9 4.3 0.00 0.00 0.00 78 1012.3
20260905135605 73 126 2.6 4.3 0.00 0.00 0.00 77 1012.4
20260905135105 72 128 0.9 4.3 0.00 0.00 0.00 78 1012.4
20260905134605 72 157 0.0 1.7 0.00 0.00 0.00 81 1012.5
20260905133604 71 183 0.9 4.3 0.00 0.00 0.00 83 1012.5
20260905132605 70 167 2.6 2.6 0.00 0.00 0.00 86 1012.6
20260905132105 68 224 0.9 2.6 0.00 0.00 0.00 86 1012.5
20260905131605 67 242 0.0 0.0 0.00 0.00 0.00 87 1012.6
20260905130605 67 242 0.0 0.0 0.00 0.00 0.00 86 1012.7
20260905130105 67 242 0.0 2.6 0.00 0.00 0.00 86 1012.7
20260905125605 67 242 0.0 1.7 0.00 0.00 0.00 87 1012.9
20260905125105 67 242 0.0 1.7 0.00 0.00 0.00 87 1012.9
20260905124605 66 242 0.9 1.7 0.00 0.00 0.00 87 1012.9
20260905124105 66 242 0.0 4.3 0.00 0.00 0.00 87 1012.8
20260905123105 66 282 1.7 4.3 0.00 0.00 0.00 88 1012.8
20260905122605 66 268 2.6 7.0 0.00 0.00 0.00 89 1012.9
20260905122106 66 281 3.5 7.0 0.00 0.00 0.00 90 1012.9
20260905121605 65 266 4.3 7.0 0.00 0.00 0.00 91 1012.9
20260905121105 65 279 1.7 2.6 0.00 0.00 0.00 92 1012.9
20260905120605 64 273 1.7 5.2 0.00 0.00 0.00 93 1012.8
20260905120105 64 307 0.9 6.1 0.00 0.00 0.00 94 1012.7
20260905115605 64 276 0.9 5.2 0.00 0.00 0.00 95 1012.6
20260905115105 63 264 1.7 6.1 0.00 0.00 0.00 95 1012.6
20260905114605 63 286 2.6 6.1 0.00 0.00 0.00 95 1012.6
20260905114105 62 286 1.7 2.6 0.00 0.00 0.00 95 1012.5
20260905113605 62 280 1.7 4.3 0.00 0.00 0.00 95 1012.4
20260905112606 61 336 0.0 0.0 0.00 0.00 0.00 96 1012.4
20260905112104 61 336 0.0 0.0 0.00 0.00 0.00 95 1012.4
20260905111605 60 336 0.0 0.0 0.00 0.00 0.00 95 1012.2
20260905111106 60 336 0.0 0.0 0.00 0.00 0.00 95 1012.2
20260905110605 60 336 0.0 0.0 0.00 0.00 0.00 95 1012.2
20260905110105 60 336 0.0 0.0 0.00 0.00 0.00 95 1012.1
20260905105105 60 336 0.0 0.0 0.00 0.01 0.00 95 1011.9
20260905104604 60 336 0.0 0.0 0.00 0.01 0.00 95 1011.9
20260905104105 60 336 0.0 0.0 0.00 0.01 0.00 95 1011.8
20260905103605 60 336 0.0 0.0 0.00 0.01 0.00 95 1011.7
20260905103105 60 336 0.0 0.0 0.00 0.01 0.00 95 1011.7
20260905102606 60 336 0.0 0.0 0.00 0.01 0.00 95 1011.5
20260905102105 60 336 0.0 0.0 0.00 0.01 0.00 95 1011.5
20260905101606 60 336 0.0 0.0 0.00 0.01 0.00 95 1011.5
20260905101104 60 336 0.0 0.0 0.00 0.01 0.00 94 1011.4
20260905100605 60 336 0.0 0.0 0.00 0.01 0.00 94 1011.4
20260905100105 60 336 0.0 0.0 0.00 0.01 0.00 94 1011.5
20260905095106 60 336 0.0 0.0 0.00 0.01 0.00 94 1011.4
20260905094604 60 336 0.0 0.0 0.00 0.01 0.00 94 1011.5
20260905094104 60 336 0.0 0.0 0.00 0.01 0.00 94 1011.4
20260905093605 60 336 0.0 0.0 0.00 0.01 0.00 94 1011.5
20260905093104 60 336 0.0 0.0 0.00 0.01 0.00 94 1011.4
20260905092604 60 336 0.0 0.0 0.00 0.01 0.00 94 1011.4
20260905092104 61 336 0.0 0.0 0.00 0.01 0.00 94 1011.4
20260905091106 61 336 0.0 0.0 0.00 0.01 0.00 94 1011.4
20260905090605 61 336 0.0 0.0 0.00 0.01 0.00 94 1011.3
20260905085605 61 336 0.0 0.0 0.00 0.01 0.00 94 1011.3
20260905085105 61 336 0.0 0.0 0.00 0.01 0.00 94 1011.3
20260905084605 61 336 0.0 0.0 0.00 0.01 0.00 94 1011.3
20260905084105 61 336 0.0 0.0 0.00 0.01 0.00 94 1011.2
20260905083605 61 336 0.0 0.0 0.00 0.01 0.00 94 1011.2
20260905083105 61 336 0.0 0.0 0.00 0.01 0.00 94 1011.3
20260905082606 61 336 0.0 0.0 0.00 0.01 0.00 94 1011.2
20260905082106 62 336 0.0 0.0 0.00 0.01 0.00 93 1011.2
20260905081104 62 336 0.0 0.0 0.00 0.01 0.00 93 1011.2
20260905080605 62 336 0.0 0.0 0.00 0.01 0.00 94 1011.3
20260905080105 62 336 0.0 0.0 0.00 0.01 0.00 93 1011.3
20260905075604 62 336 0.0 0.0 0.00 0.01 0.00 93 1011.3
20260905074605 62 336 0.0 0.0 0.00 0.01 0.00 93 1011.3
20260905074106 62 336 0.0 0.0 0.00 0.01 0.00 93 1011.3
20260905073605 62 336 0.0 0.0 0.00 0.01 0.00 93 1011.4
20260905072605 62 336 0.0 0.0 0.00 0.01 0.00 93 1011.4
20260905072105 62 335 0.0 0.0 0.00 0.02 0.00 93 1011.4
20260905071606 63 335 0.0 0.0 0.00 0.03 0.00 93 1011.4
20260905071105 63 335 0.0 0.0 0.00 0.05 0.00 92 1011.4
20260905070604 63 335 0.0 0.0 0.00 0.06 0.00 92 1011.3
20260905065605 63 334 0.0 0.0 0.00 0.07 0.00 92 1011.5
20260905065105 63 334 0.0 0.0 0.00 0.08 0.00 92 1011.5
20260905064605 63 332 0.0 0.0 0.00 0.12 0.00 92 1011.4
20260905064105 64 332 0.0 0.0 0.00 0.19 0.00 92 1011.5
20260905063605 64 333 0.0 0.0 0.00 0.21 0.00 92 1011.6
20260905063104 64 333 0.0 1.7 0.00 0.21 0.00 92 1011.6
20260905062605 64 334 0.0 0.0 0.00 0.21 0.00 92 1011.6
20260905062105 64 334 0.0 0.0 0.00 0.22 0.00 91 1011.6
20260905060604 65 334 0.0 0.0 0.00 0.25 0.00 91 1011.7
20260905060104 65 334 0.0 0.0 0.00 0.25 0.00 91 1011.7
20260905055105 65 335 0.0 0.0 0.00 0.25 0.00 91 1011.7
20260905054605 65 335 0.0 0.0 0.00 0.25 0.00 91 1011.9
20260905053605 66 335 0.0 0.0 0.00 0.25 0.00 91 1012.0
20260905053105 66 335 0.0 0.0 0.00 0.25 0.00 91 1012.1
20260905052604 66 335 0.0 0.0 0.00 0.25 0.00 91 1012.1
20260905052105 66 335 0.0 0.0 0.00 0.25 0.00 91 1012.2
20260905051105 66 334 0.0 0.0 0.00 0.25 0.00 90 1012.3
20260905050604 66 334 0.0 0.0 0.00 0.25 0.00 90 1012.3
20260905050104 66 334 0.0 0.0 0.00 0.25 0.00 90 1012.3
20260905045606 66 334 0.0 0.0 0.00 0.25 0.00 90 1012.3
20260905045105 66 334 0.0 0.0 0.00 0.25 0.00 90 1012.3
20260905044605 66 334 0.0 0.0 0.00 0.25 0.00 90 1012.2
20260905043104 66 334 0.0 0.0 0.00 0.25 0.00 89 1012.1
20260905042605 67 333 0.0 0.0 0.00 0.25 0.00 89 1012.3
20260905042104 67 334 0.0 0.0 0.00 0.25 0.00 89 1012.2
20260905041104 67 334 0.0 0.0 0.00 0.25 0.00 89 1012.2
20260905040605 67 334 0.0 0.0 0.00 0.25 0.00 89 1012.3
20260905035605 67 334 0.0 0.0 0.00 0.25 0.25 89 1012.3
20260905035104 67 334 0.0 0.0 0.00 0.25 0.25 89 1012.3
20260905034605 67 334 0.0 0.0 0.00 0.25 0.25 88 1012.4
20260905033105 68 334 0.0 0.0 0.00 0.25 0.25 89 1012.3
20260905032606 68 334 0.0 0.0 0.00 0.25 0.25 89 1012.2
20260905032105 68 334 0.0 0.0 0.00 0.25 0.25 88 1012.2
20260905031105 68 334 0.0 0.0 0.00 0.25 0.25 88 1012.2
20260905030605 68 334 0.0 0.0 0.00 0.25 0.25 88 1012.2
20260905030104 68 334 0.0 0.0 0.00 0.25 0.25 88 1012.1
20260905025605 68 334 0.0 0.0 0.00 0.25 0.25 87 1012.1
20260905025104 68 334 0.0 0.0 0.00 0.25 0.25 87 1012.1
20260905024605 69 334 0.0 0.0 0.00 0.25 0.25 86 1012.1
20260905024105 69 334 0.0 0.0 0.00 0.25 0.25 86 1012.1
20260905023605 69 335 0.0 0.0 0.00 0.25 0.25 85 1012.1
20260905023106 69 336 0.0 0.0 0.00 0.25 0.25 85 1012.2
20260905022604 69 336 0.9 1.7 0.00 0.25 0.25 85 1012.1
20260905022104 69 336 1.7 2.6 0.00 0.25 0.25 85 1012.3
20260905021605 69 336 0.0 0.0 0.00 0.25 0.25 84 1012.3
20260905020605 70 336 0.0 0.0 0.00 0.25 0.25 83 1012.2
20260905020107 70 336 0.0 0.0 0.00 0.25 0.25 83 1012.2
20260905015605 70 336 0.9 1.7 0.00 0.25 0.25 82 1012.2
20260905015105 71 336 0.0 0.9 0.00 0.25 0.25 82 1012.2
20260905014605 71 336 0.0 0.9 0.00 0.25 0.25 81 1012.1
20260905014105 72 334 0.9 1.7 0.00 0.25 0.25 80 1012.1
20260905013605 72 340 0.0 0.9 0.00 0.25 0.25 80 1012.1
20260905013104 72 340 0.0 1.7 0.00 0.25 0.25 79 1012.0
20260905012604 72 340 0.9 1.7 0.00 0.25 0.25 79 1012.0
20260905011604 73 327 0.0 2.6 0.00 0.25 0.25 78 1012.1
20260905010605 73 342 0.0 1.7 0.00 0.25 0.25 78 1012.0
20260905010105 73 342 0.0 1.7 0.00 0.25 0.25 77 1012.1
20260905005605 73 340 0.0 0.0 0.00 0.25 0.25 77 1012.1
20260905004606 73 338 0.9 2.6 0.00 0.25 0.25 76 1012.1
20260905004104 73 338 0.9 2.6 0.00 0.25 0.25 76 1012.1
20260905003606 74 342 0.0 0.0 0.00 0.25 0.25 75 1012.0
20260905002104 74 342 0.0 1.7 0.00 0.25 0.25 74 1012.0
20260905001604 74 318 0.0 0.0 0.00 0.25 0.25 74 1012.0
20260905001104 75 318 0.0 1.7 0.00 0.25 0.25 73 1011.9
20260905000605 75 338 0.0 2.6 0.00 0.25 0.25 73 1011.7
20260905000104 75 338 0.0 4.3 0.00 0.25 0.25 74 1011.7
20260904235606 75 344 0.9 2.6 0.00 0.25 0.25 73 1011.6
20260904234604 76 291 0.0 1.7 0.00 0.25 0.25 73 1011.6
20260904233104 77 341 0.9 2.6 0.00 0.25 0.25 72 1011.6
20260904232605 77 338 0.0 0.9 0.00 0.25 0.25 72 1011.6
20260904232105 77 338 0.9 2.6 0.00 0.25 0.25 72 1011.5
20260904231605 77 313 0.0 2.6 0.00 0.25 0.25 72 1011.5
20260904231105 77 307 0.0 0.9 0.00 0.25 0.25 72 1011.5
20260904230604 77 307 0.9 2.6 0.00 0.25 0.25 72 1011.5
20260904230105 78 320 0.0 1.7 0.00 0.25 0.25 72 1011.6
20260904225605 78 315 0.0 0.9 0.00 0.25 0.25 71 1011.6
20260904225105 78 315 0.0 2.6 0.00 0.25 0.25 71 1011.6
20260904224604 78 310 0.9 1.7 0.00 0.25 0.25 71 1011.5
20260904224105 78 309 0.0 0.9 0.00 0.25 0.25 71 1011.5
20260904223605 78 309 0.0 0.9 0.00 0.25 0.25 70 1011.5
20260904223105 78 310 0.0 0.9 0.00 0.25 0.25 70 1011.5
20260904222604 79 305 0.0 1.7 0.00 0.25 0.25 70 1011.6
20260904222104 79 303 0.0 1.7 0.00 0.25 0.25 70 1011.5
20260904221605 79 301 0.9 2.6 0.00 0.25 0.25 69 1011.5
20260904215604 80 276 0.9 4.3 0.00 0.25 0.25 66 1011.4
20260904214604 80 293 0.9 2.6 0.00 0.25 0.25 65 1011.3
20260904214105 80 286 1.7 2.6 0.00 0.25 0.25 63 1011.3
20260904213605 81 284 0.9 2.6 0.00 0.25 0.25 63 1011.3
20260904213105 82 284 0.0 2.6 0.00 0.25 0.25 61 1011.3
20260904212604 82 283 1.7 2.6 0.00 0.25 0.25 60 1011.2
20260904211604 82 302 0.9 2.6 0.00 0.25 0.25 59 1011.2
20260904211106 82 288 1.7 2.6 0.00 0.25 0.25 58 1011.2
20260904210605 82 263 1.7 2.6 0.00 0.25 0.25 58 1011.4
20260904210105 83 294 1.7 6.1 0.00 0.25 0.25 55 1011.4
20260904205605 83 307 2.6 7.0 0.00 0.25 0.25 55 1011.3
20260904205105 83 280 4.3 7.8 0.00 0.25 0.25 55 1011.4
20260904204604 84 317 2.6 4.3 0.00 0.25 0.25 54 1011.3
20260904203605 84 296 2.6 7.8 0.00 0.25 0.25 56 1011.4
20260904203105 85 288 2.6 8.7 0.00 0.25 0.25 52 1011.5
20260904202606 85 319 1.7 7.0 0.00 0.25 0.25 53 1011.6
20260904202105 85 276 2.6 8.7 0.00 0.25 0.25 53 1011.6
20260904201605 85 287 2.6 10.4 0.00 0.25 0.25 52 1011.5
20260904201104 85 295 4.3 10.4 0.00 0.25 0.25 54 1011.5
20260904200605 86 326 1.7 7.8 0.00 0.25 0.25 54 1011.5
20260904200105 85 0 2.6 10.4 0.00 0.25 0.25 52 1011.6
20260904195605 85 303 1.7 7.0 0.00 0.25 0.25 55 1011.5
20260904195105 85 301 4.3 8.7 0.00 0.25 0.25 52 1011.5
20260904194604 85 352 0.9 6.1 0.00 0.25 0.25 52 1011.6
20260904194105 85 356 2.6 6.1 0.00 0.25 0.25 53 1011.5
20260904193605 85 310 0.9 7.0 0.00 0.25 0.25 55 1011.5
20260904193104 85 292 2.6 8.7 0.00 0.25 0.25 54 1011.5
20260904192604 84 350 0.9 6.1 0.00 0.25 0.25 56 1011.5
20260904192105 84 19 1.7 7.8 0.00 0.25 0.25 57 1011.6
20260904191604 84 28 2.6 5.2 0.00 0.25 0.25 57 1011.8
20260904191105 84 20 2.6 5.2 0.00 0.25 0.25 56 1011.7
20260904190604 85 294 1.7 7.0 0.00 0.25 0.25 54 1011.8
20260904190104 85 296 1.7 6.1 0.00 0.25 0.25 56 1011.9
20260904185106 85 92 1.7 2.6 0.00 0.25 0.25 55 1012.0
20260904184605 85 10 0.9 10.4 0.00 0.25 0.25 58 1012.1
20260904184105 85 289 2.6 6.1 0.00 0.25 0.25 56 1012.1
20260904183105 84 328 1.7 7.8 0.00 0.25 0.25 57 1012.2